ミュラー第3彗星

136P/Mueller 3 (2007)

English version
Home page
Total 6,336 html files since Dec. 4, 1995
Updated on April 4, 2008

---------------------------------------------------------------------

・ プロフィール

・ 写真集

・ 軌道要素

The following orbital elements are taken from MPC 60282:

Epoch 2007 Oct. 27.0 TT = JDT 2454400.5
T 2007 Oct. 22.1963 TT                                  MPC
q   2.960636             (2000.0)            P               Q
n   0.1150244      Peri.  224.8589      +0.9926796      -0.0486817
a   4.187384       Node   137.5609      +0.0782447      +0.9563664
e   0.292963       Incl.    9.4274      -0.0920049      +0.2880858
P   8.57
From 109 observations 1990-2007, mean residual 0".9.

・ 光度変化

        m1 = 9.0 + 5 logΔ + 15.0 log r

---------------------------------------------------------------------

軌道要素はMPCのEphemerides and Orbital Elementsに掲載されたものです。
光度グラフはComet for Windowsで作成したものです。

---------------------------------------------------------------------

Copyright(C) 1995-2008 Seiichi Yoshida (comet@aerith.net). All rights reserved.